This is the latest recevied weather packets stored in our database for station/object KJ4OVR-WX. If no packets are shown the sender has not sent any weather packets the latest 1 day(s).
| Time | Temp. | Humidity | Pressure | Rain* | Wind** | Luminosity | Snow |
|---|---|---|---|---|---|---|---|
| 1778103037 | 17.78° C | 95% | 1011.9 hPa | 0 mm | - | - | - |
| 1778102437 | 17.78° C | 95% | 1011.7 hPa | 0 mm | - | - | - |
| 1778102137 | 17.78° C | 95% | 1011.5 hPa | 0 mm | - | - | - |
| 1778101537 | 17.78° C | 95% | 1011.5 hPa | 0 mm | - | - | - |
| 1778099738 | 17.78° C | 95% | 1012.2 hPa | 0 mm | - | - | - |
| 1778098238 | 17.78° C | 95% | 1012.3 hPa | 0 mm | - | - | - |
| 1778097938 | 17.78° C | 95% | 1012.3 hPa | 0 mm | - | - | - |
| 1778097638 | 17.78° C | 95% | 1012.4 hPa | 0 mm | - | - | - |
| 1778097338 | 17.78° C | 95% | 1012.4 hPa | 0 mm | - | - | - |
| 1778096139 | 17.78° C | 95% | 1012.8 hPa | 0 mm | - | - | - |
| 1778095239 | 17.22° C | 94% | 1013.1 hPa | 0 mm | - | - | - |
| 1778094039 | 17.78° C | 94% | 1013 hPa | 0 mm | - | - | - |
| 1778092240 | 17.78° C | 93% | 1013 hPa | 0 mm | - | - | - |
| 1778090440 | 17.78° C | 93% | 1012.8 hPa | 0 mm | - | - | - |
| 1778089840 | 18.33° C | 92% | 1012.8 hPa | 0 mm | - | - | - |
| 1778088641 | 18.89° C | 92% | 1013.2 hPa | 0 mm | - | - | - |
| 1778088340 | 18.89° C | 92% | 1013.1 hPa | 0 mm | - | - | - |
| 1778086242 | 20.56° C | 90% | 1012.9 hPa | 0 mm | - | - | - |
| 1778085641 | 20.56° C | 90% | 1012.5 hPa | 0 mm | - | - | - |
| 1778085042 | 21.11° C | 90% | 1012.2 hPa | 0 mm | - | - | - |
| 1778084741 | 21.11° C | 90% | 1012.1 hPa | 0 mm | - | - | - |
| 1778083243 | 21.11° C | 92% | 1012 hPa | 0 mm | - | - | - |
| 1778082942 | 21.11° C | 92% | 1012.1 hPa | 0 mm | - | - | - |
| 1778082042 | 20.56° C | 93% | 1012.2 hPa | 0 mm | - | - | - |
| 1778080843 | 20.56° C | 94% | 1012.1 hPa | 0 mm | - | - | - |
* Rain latest hour (hover to see other rain measurements)
** Current wind speed in m/s (hover to see current wind gust speed)